FW5749 Sugarloaf Key FL US current weather conditions

sailwx.info

Wind from 101 at 1 knots gusting 6

Air temperature 26.7° C
Dewpoint 24.5° C

Last reported at 2020-Jun-05 03:02 UTC.
Time now 2020-Jun-05 03:41 UTC

Location: N 24°38' W 081°33'.
View on Google Maps.

See reports from other nearby stations

  
Tides and Currents Weather Stations Pressure Air Temp Water Temp Dewpoint Dewpoint Depression Visibility Wind Speed Wind Dir Waves Ship Positions
date/time (UTC)wind fromknots sea level pressurealtimeterstation pressurevisibilityair tempwater tempwave heightnotes
2020-Jun-05 03:02 101 1 gusting 6 26.7
2020-Jun-05 02:55 107 1 gusting 6 26.7
2020-Jun-05 02:50 101 2 gusting 6 26.7
2020-Jun-05 02:47 101 2 gusting 6 26.7
2020-Jun-05 02:40 059 3 gusting 7 26.7
2020-Jun-05 02:35 095 4 gusting 7 26.7
2020-Jun-05 02:33 078 3 gusting 8 26.7
2020-Jun-05 02:25 086 4 gusting 9 26.7
2020-Jun-05 02:20 078 3 gusting 9 26.7
2020-Jun-05 02:15 083 4 gusting 9 26.7
2020-Jun-05 02:10 088 4 gusting 10 26.7
2020-Jun-05 02:06 094 5 gusting 10 26.7
2020-Jun-05 02:00 099 5 gusting 9 26.7
2020-Jun-05 01:55 085 5 gusting 9 26.7
2020-Jun-05 01:51 114 5 gusting 9 26.7
2020-Jun-05 01:46 103 5 gusting 8 26.7
2020-Jun-05 01:41 101 4 gusting 9 26.7
2020-Jun-05 01:35 084 5 gusting 9 26.7
2020-Jun-05 01:32 092 5 gusting 8 26.7
2020-Jun-05 01:25 077 5 gusting 8 26.1
2020-Jun-05 01:20 080 5 gusting 8 26.1
2020-Jun-05 01:16 101 5 gusting 9 26.1
2020-Jun-05 01:10 119 6 gusting 10 26.1
2020-Jun-05 01:05 105 5 gusting 10 26.1
2020-Jun-05 01:01 095 6 gusting 10 26.1
2020-Jun-05 00:55 092 6 gusting 10 26.1
2020-Jun-05 00:50 102 6 gusting 11 26.1
2020-Jun-05 00:46 098 6 gusting 11 26.1
2020-Jun-05 00:40 090 6 gusting 12 26.7
2020-Jun-05 00:35 114 6 gusting 12 26.1
2020-Jun-05 00:31 106 6 gusting 12 26.1
2020-Jun-05 00:25 107 6 gusting 12 26.7
2020-Jun-05 00:20 088 7 gusting 12 26.7
2020-Jun-05 00:16 082 6 gusting 10 26.7
2020-Jun-05 00:10 103 6 gusting 10 26.7
2020-Jun-05 00:05 114 6 gusting 10 26.7
2020-Jun-05 00:01 101 6 gusting 11 26.7
2020-Jun-04 23:55 107 5 gusting 11 26.7
2020-Jun-04 23:50 090 6 gusting 10 26.7
2020-Jun-04 23:47 098 6 gusting 10 26.7
2020-Jun-04 23:40 082 5 gusting 11 26.7
2020-Jun-04 23:35 087 6 gusting 11 26.7
2020-Jun-04 23:31 104 5 gusting 8 26.7
2020-Jun-04 23:26 075 6 gusting 8 26.7
2020-Jun-04 23:20 088 5 gusting 9 26.7
2020-Jun-04 23:18 110 5 gusting 9 26.7
2020-Jun-04 23:11 100 5 gusting 9 26.7
2020-Jun-04 23:05 096 5 gusting 9 26.7
2020-Jun-04 23:01 117 4 gusting 11 26.7
2020-Jun-04 22:55 098 6 gusting 11 26.7
2020-Jun-04 22:50 083 6 gusting 11 26.7
2020-Jun-04 22:46 084 6 gusting 11 26.7
2020-Jun-04 22:40 090 6 gusting 10 26.7
2020-Jun-04 22:36 097 5 gusting 11 26.7
2020-Jun-04 22:31 107 6 gusting 11 26.7
2020-Jun-04 22:26 078 6 gusting 11 26.7
2020-Jun-04 22:20 092 6 gusting 11 26.7
2020-Jun-04 22:16 090 5 gusting 8 26.7
2020-Jun-04 22:11 084 5 gusting 8 26.7
2020-Jun-04 22:05 080 4 gusting 7 26.7
2020-Jun-04 22:02 087 4 gusting 7 26.7
2020-Jun-04 21:55 095 3 gusting 7 26.7
2020-Jun-04 21:51 083 4 gusting 8 26.7
2020-Jun-04 21:47 084 6 gusting 8 26.7
2020-Jun-04 21:40 105 5 gusting 7 26.7
2020-Jun-04 21:35 091 5 gusting 8 26.7
2020-Jun-04 21:32 087 3 gusting 8 26.7
2020-Jun-04 21:25 078 4 gusting 6 26.7
2020-Jun-04 21:20 097 5 gusting 7 26.7
2020-Jun-04 21:17 107 4 gusting 7 26.7
2020-Jun-04 21:10 126 3 gusting 8 26.7
2020-Jun-04 21:06 108 2 gusting 8 26.7
2020-Jun-04 21:02 115 4 gusting 8 26.7
2020-Jun-04 20:56 096 3 gusting 11 26.7
2020-Jun-04 20:50 111 4 gusting 11 26.7
2020-Jun-04 20:46 110 7 gusting 11 26.7
2020-Jun-04 20:40 104 5 gusting 11 26.7
2020-Jun-04 20:35 125 4 gusting 11 26.7
2020-Jun-04 20:32 123 6 gusting 11 26.7
2020-Jun-04 20:25 101 7 gusting 11 26.7
2020-Jun-04 20:20 096 6 gusting 11 26.7
2020-Jun-04 20:16 086 6 gusting 11 26.7
2020-Jun-04 20:10 109 6 gusting 11 26.7
2020-Jun-04 20:05 117 6 gusting 11 26.7
2020-Jun-04 20:02 115 5 gusting 13 26.7
2020-Jun-04 19:55 107 5 gusting 13 26.7
2020-Jun-04 19:50 138 7 gusting 11 26.7
2020-Jun-04 19:46 121 6 gusting 11 26.7
2020-Jun-04 19:40 180 6 gusting 11 26.7
2020-Jun-04 19:35 131 6 gusting 12 26.7
2020-Jun-04 19:31 116 6 gusting 13 26.7
2020-Jun-04 19:25 134 8 gusting 13 26.7
2020-Jun-04 19:21 123 7 gusting 13 26.7
2020-Jun-04 19:17 105 6 gusting 13 26.1
2020-Jun-04 19:11 131 6 gusting 13 26.1
2020-Jun-04 19:05 124 10 gusting 15 26.1
2020-Jun-04 19:01 127 10 gusting 15 26.1
2020-Jun-04 18:55 139 10 gusting 15 26.1
2020-Jun-04 18:51 134 9 gusting 14 26.1
2020-Jun-04 18:46 132 6 gusting 13 25.6
2020-Jun-04 18:40 126 8 gusting 13 25.6
2020-Jun-04 18:35 105 7 gusting 13 25.6
2020-Jun-04 18:31 089 6 gusting 14 25.6
2020-Jun-04 18:25 105 7 gusting 14 25.0
2020-Jun-04 18:20 120 7 gusting 14 25.6
2020-Jun-04 18:17 122 6 gusting 14 25.6
2020-Jun-04 18:10 112 7 gusting 17 25.6
2020-Jun-04 18:05 098 9 gusting 17 25.0
2020-Jun-04 18:01 113 8 gusting 16 25.6
2020-Jun-04 17:55 091 8 gusting 16 25.6
2020-Jun-04 17:50 099 8 gusting 15 25.6
2020-Jun-04 17:46 109 7 gusting 14 25.6
2020-Jun-04 17:40 094 5 gusting 14 25.6
2020-Jun-04 17:35 110 7 gusting 13 25.6
2020-Jun-04 17:31 099 6 gusting 13 25.6
2020-Jun-04 17:25 090 7 gusting 14 25.6
2020-Jun-04 17:20 127 8 gusting 14 25.6
2020-Jun-04 17:17 119 7 gusting 13 25.6
2020-Jun-04 17:10 126 6 gusting 13 25.6
2020-Jun-04 17:05 106 5 gusting 13 25.6
2020-Jun-04 17:03 124 6 gusting 12 25.6
2020-Jun-04 16:55 159 5 gusting 13 25.6
2020-Jun-04 16:50 113 7 gusting 13 25.6
2020-Jun-04 16:46 127 7 gusting 13 25.6
2020-Jun-04 16:40 115 7 gusting 13 25.6
2020-Jun-04 16:35 084 7 gusting 15 25.6
2020-Jun-04 16:31 123 7 gusting 16 25.6
2020-Jun-04 16:25 134 7 gusting 16 25.6
2020-Jun-04 16:20 131 6 gusting 15 25.6
2020-Jun-04 16:17 121 9 gusting 15 25.6
2020-Jun-04 16:10 153 7 gusting 14 25.6
2020-Jun-04 16:05 130 7 gusting 17 25.6
2020-Jun-04 16:01 114 8 gusting 17 25.6
2020-Jun-04 15:55 132 7 gusting 13 25.0
2020-Jun-04 15:50 126 5 gusting 14 25.0
2020-Jun-04 15:46 130 8 gusting 14 25.0
2020-Jun-04 15:40 128 8 gusting 13 25.0
2020-Jun-04 15:35 127 7 gusting 12 25.0
2020-Jun-04 15:31 123 5 gusting 10 25.0
2020-Jun-04 15:26 105 5 gusting 10 25.0
2020-Jun-04 15:20 117 6 gusting 10 25.0
2020-Jun-04 15:16 157 5 gusting 10 25.0
2020-Jun-04 15:10 126 6 gusting 11 25.0
2020-Jun-04 15:05 085 7 gusting 11 25.0
2020-Jun-04 15:01 117 4 gusting 12 25.0
2020-Jun-04 14:56 175 5 gusting 12 25.0
2020-Jun-04 14:50 119 6 gusting 11 25.0
2020-Jun-04 14:46 146 6 gusting 10 24.4
2020-Jun-04 14:40 134 6 gusting 9 24.4
2020-Jun-04 14:36 121 3 gusting 7 24.4
2020-Jun-04 14:31 096 3 gusting 7 24.4
2020-Jun-04 14:25 119 3 gusting 10 24.4
2020-Jun-04 14:21 108 5 gusting 10 24.4
2020-Jun-04 14:15 121 4 gusting 11 23.9
2020-Jun-04 14:10 104 6 gusting 11 23.9
2020-Jun-04 14:05 082 3 gusting 9 23.9
2020-Jun-04 14:01 096 5 gusting 11 23.9
2020-Jun-04 13:56 114 7 gusting 11 23.9
2020-Jun-04 13:50 089 6 gusting 13 23.9
2020-Jun-04 13:46 105 6 gusting 13 23.3
2020-Jun-04 13:41 123 6 gusting 14 23.3
2020-Jun-04 13:35 120 8 gusting 17 23.3
2020-Jun-04 13:31 126 8 gusting 17 23.3
2020-Jun-04 13:25 143 9 gusting 15 23.9
2020-Jun-04 13:20 146 7 gusting 14 23.9
2020-Jun-04 13:16 153 5 gusting 13 24.4
2020-Jun-04 13:10 138 6 gusting 8 24.4
2020-Jun-04 13:05 129 2 gusting 6 23.9
2020-Jun-04 13:02 117 1 gusting 6 23.9
2020-Jun-04 12:55 104 2 gusting 6 23.3
2020-Jun-04 12:50 101 2 gusting 5 23.3
2020-Jun-04 12:46 091 2 gusting 5 22.8
2020-Jun-04 12:40 106 2 gusting 5 22.8
2020-Jun-04 12:35 104 2 gusting 6 22.8
2020-Jun-04 12:31 090 2 gusting 6 22.8
2020-Jun-04 12:25 091 4 gusting 6 22.8
2020-Jun-04 12:20 113 2 gusting 6 23.3
2020-Jun-04 12:17 150 2 gusting 7 23.3
2020-Jun-04 12:10 111 3 gusting 10 22.8
2020-Jun-04 12:05 118 5 gusting 10 22.8
2020-Jun-04 12:01 086 4 gusting 7 22.2
2020-Jun-04 11:56 115 4 gusting 8 22.2
2020-Jun-04 11:50 103 5 gusting 11 22.2
2020-Jun-04 11:46 107 6 gusting 13 22.2
2020-Jun-04 11:40 090 7 gusting 20 22.2
2020-Jun-04 11:35 117 13 gusting 22 22.8
2020-Jun-04 11:31 091 13 gusting 22 22.8
2020-Jun-04 11:25 143 10 gusting 19 23.3
2020-Jun-04 11:20 132 2 gusting 8 22.8
2020-Jun-04 11:16 090 0 gusting 8 22.8
2020-Jun-04 11:10 063 3 gusting 12 22.8
2020-Jun-04 11:05 081 6 gusting 17 22.2
2020-Jun-04 11:01 055 7 gusting 17 22.8
2020-Jun-04 10:55 076 12 gusting 17 22.8
2020-Jun-04 10:51 085 9 gusting 17 22.2
2020-Jun-04 10:46 090 10 gusting 17 22.2
2020-Jun-04 10:40 114 4 gusting 12 22.2
2020-Jun-04 10:35 115 5 gusting 13 22.2
2020-Jun-04 10:31 138 7 gusting 16 22.8
2020-Jun-04 10:26 105 8 gusting 17 23.3
2020-Jun-04 10:20 221 10 gusting 17 23.3
2020-Jun-04 10:16 196 5 gusting 16 23.9
2020-Jun-04 10:10 211 8 gusting 16 23.3
2020-Jun-04 10:06 084 7 gusting 16 23.9
2020-Jun-04 10:01 080 9 gusting 19 23.9
2020-Jun-04 09:55 081 10 gusting 20 24.4
2020-Jun-04 09:51 090 9 gusting 20 25.0
2020-Jun-04 09:46 086 7 gusting 13 25.0
2020-Jun-04 09:41 076 8 gusting 13 25.6
2020-Jun-04 09:36 076 4 gusting 11 25.6
2020-Jun-04 09:31 073 2 gusting 7 25.6
2020-Jun-04 09:25 069 2 gusting 6 25.6
2020-Jun-04 09:20 036 3 gusting 6 25.6
2020-Jun-04 09:16 068 2 gusting 6 25.6
2020-Jun-04 09:10 063 1 gusting 4 25.6
2020-Jun-04 09:05 087 1 gusting 6 25.6
2020-Jun-04 09:01 084 1 gusting 6 25.6
2020-Jun-04 08:55 081 1 gusting 6 25.6
2020-Jun-04 08:50 089 3 gusting 6 25.0
2020-Jun-04 08:46 069 2 gusting 6 25.0
2020-Jun-04 08:40 080 1 gusting 6 25.0
2020-Jun-04 08:35 071 2 gusting 6 25.0
2020-Jun-04 08:31 078 1 gusting 5 25.0
2020-Jun-04 08:25 065 1 gusting 5 25.0
2020-Jun-04 08:20 074 1 gusting 6 25.0
2020-Jun-04 08:16 067 2 gusting 6 25.0
2020-Jun-04 08:10 061 1 gusting 6 25.0
2020-Jun-04 08:05 061 2 gusting 7 25.0
2020-Jun-04 08:03 074 2 gusting 7 25.0
2020-Jun-04 07:55 085 3 gusting 7 25.0
2020-Jun-04 07:50 090 4 gusting 7 25.0
2020-Jun-04 07:46 071 4 gusting 6 25.0
2020-Jun-04 07:41 080 3 gusting 6 25.0
2020-Jun-04 07:35 079 2 gusting 6 25.0
2020-Jun-04 07:31 084 3 gusting 6 25.0
2020-Jun-04 07:25 080 2 gusting 7 25.0
2020-Jun-04 07:20 104 2 gusting 7 25.0
2020-Jun-04 07:17 092 2 gusting 6 25.0
2020-Jun-04 07:10 092 4 gusting 6 25.0
2020-Jun-04 07:05 078 3 gusting 6 25.0
2020-Jun-04 07:01 082 3 gusting 6 25.0
2020-Jun-04 06:55 054 2 gusting 6 25.0
2020-Jun-04 06:50 069 1 gusting 6 25.0
2020-Jun-04 06:48 075 3 gusting 7 25.0
2020-Jun-04 06:40 082 4 gusting 7 24.4
2020-Jun-04 06:36 054 3 gusting 8 24.4
2020-Jun-04 06:31 095 4 gusting 8 24.4
2020-Jun-04 06:25 080 4 gusting 9 24.4
2020-Jun-04 06:20 094 4 gusting 9 24.4
2020-Jun-04 06:16 092 5 gusting 9 24.4
2020-Jun-04 06:10 121 3 gusting 9 24.4
2020-Jun-04 06:05 107 6 gusting 9 24.4
2020-Jun-04 06:02 091 4 gusting 9 24.4
2020-Jun-04 05:55 106 6 gusting 11 24.4
2020-Jun-04 05:51 098 6 gusting 13 24.4
2020-Jun-04 05:46 096 7 gusting 13 24.4
2020-Jun-04 05:40 092 6 gusting 12 24.4
2020-Jun-04 05:35 096 6 gusting 13 24.4
2020-Jun-04 05:32 092 6 gusting 13 24.4
2020-Jun-04 05:25 093 6 gusting 14 24.4
2020-Jun-04 05:20 084 8 gusting 14 23.9
2020-Jun-04 05:17 101 6 gusting 13 23.9
2020-Jun-04 05:10 110 7 gusting 13 23.9
2020-Jun-04 05:05 086 7 gusting 13 23.3
2020-Jun-04 05:01 081 6 gusting 12 23.3
2020-Jun-04 04:55 111 7 gusting 14 23.9
2020-Jun-04 04:50 093 8 gusting 15 23.3
2020-Jun-04 04:47 104 9 gusting 15 23.9
2020-Jun-04 04:40 088 6 gusting 13 23.9
2020-Jun-04 04:35 119 4 gusting 10 23.9
2020-Jun-04 04:32 101 6 gusting 10 23.9
2020-Jun-04 04:26 129 5 gusting 12 23.9
2020-Jun-04 04:20 119 6 gusting 17 23.9
2020-Jun-04 04:17 132 7 gusting 19 23.9
2020-Jun-04 04:10 127 11 gusting 25 24.4
2020-Jun-04 04:05 148 13 gusting 25 25.0
2020-Jun-04 04:01 107 14 gusting 22 26.7
2020-Jun-04 03:55 083 6 gusting 11 27.2
2020-Jun-04 03:50 085 6 gusting 11 27.2
2020-Jun-04 03:46 076 6 gusting 10 27.2
2020-Jun-04 03:40 101 6 gusting 10 27.2
2020-Jun-04 03:35 099 6 gusting 11 27.2
2020-Jun-04 03:31 100 6 gusting 11 27.2
2020-Jun-04 03:25 118 4 gusting 11 27.2
2020-Jun-04 03:20 102 6 gusting 11 27.2
2020-Jun-04 03:16 075 6 gusting 13 27.2
2020-Jun-04 03:10 111 6 gusting 13 27.2
2020-Jun-04 03:05 099 6 gusting 9 27.2
2020-Jun-04 03:02 072 6 gusting 9 27.2
2020-Jun-04 02:55 076 5 gusting 9 27.2
2020-Jun-04 02:50 092 4 gusting 9 27.2
2020-Jun-04 02:46 104 5 gusting 9 27.2
2020-Jun-04 02:40 094 5 gusting 8 27.2
2020-Jun-04 02:36 091 3 gusting 7 27.2
2020-Jun-04 02:32 090 3 gusting 7 27.2
2020-Jun-04 02:26 078 3 gusting 7 27.2
2020-Jun-04 02:20 104 3 gusting 8 27.2
2020-Jun-04 02:16 087 5 gusting 8 27.2
2020-Jun-04 02:10 090 3 gusting 7 27.2
2020-Jun-04 02:05 101 4 gusting 7 27.2
2020-Jun-04 02:01 100 3 gusting 7 27.2
2020-Jun-04 01:55 095 2 gusting 7 27.2
2020-Jun-04 01:51 088 3 gusting 8 27.2
2020-Jun-04 01:46 089 5 gusting 8 27.2
2020-Jun-04 01:40 076 4 gusting 8 27.2
2020-Jun-04 01:35 072 5 gusting 8 27.2
2020-Jun-04 01:31 083 4 gusting 8 27.2
2020-Jun-04 01:25 090 4 gusting 9 27.2
2020-Jun-04 01:20 088 5 gusting 9 27.2
2020-Jun-04 01:16 070 4 gusting 7 27.2
2020-Jun-04 01:11 088 3 gusting 6 27.2
2020-Jun-04 01:05 082 2 gusting 6 27.2
2020-Jun-04 01:01 077 2 gusting 7 27.2
2020-Jun-04 00:55 090 3 gusting 7 27.2
2020-Jun-04 00:50 089 3 gusting 6 27.2
2020-Jun-04 00:46 089 2 gusting 6 27.2
2020-Jun-04 00:41 090 2 gusting 6 27.2
2020-Jun-04 00:35 091 2 gusting 8 27.2
2020-Jun-04 00:31 101 3 gusting 8 27.2
2020-Jun-04 00:25 098 3 gusting 6 27.2
2020-Jun-04 00:20 076 2 gusting 6 27.2
2020-Jun-04 00:16 097 1 gusting 6 27.2
2020-Jun-04 00:10 103 2 gusting 6 27.2
2020-Jun-04 00:05 094 2 gusting 6 27.2
2020-Jun-04 00:02 092 2 gusting 6 27.2
2020-Jun-03 23:55 108 2 gusting 6 27.2
2020-Jun-03 23:50 099 2 gusting 7 27.2
2020-Jun-03 23:48 090 3 gusting 7 27.2
2020-Jun-03 23:40 084 3 gusting 7 27.2
2020-Jun-03 23:35 111 2 gusting 6 27.2
2020-Jun-03 23:31 101 1 gusting 8 27.2
2020-Jun-03 23:25 079 3 gusting 8 27.2
2020-Jun-03 23:20 061 3 gusting 6 27.2
2020-Jun-03 23:17 090 2 gusting 6 27.2
2020-Jun-03 23:10 046 3 gusting 6 27.2
2020-Jun-03 23:05 076 2 gusting 6 26.7
2020-Jun-03 23:02 054 1 gusting 4 26.7
2020-Jun-03 22:55 069 1 gusting 4 26.7
2020-Jun-03 22:51 076 1 gusting 6 26.7
2020-Jun-03 22:46 059 2 gusting 7 27.2
2020-Jun-03 22:40 052 2 gusting 8 27.2
2020-Jun-03 22:35 040 3 gusting 9 27.2
2020-Jun-03 22:31 044 5 gusting 9 27.2
2020-Jun-03 22:25 025 3 gusting 8 27.2
2020-Jun-03 22:21 053 5 gusting 8 27.2
2020-Jun-03 22:16 051 4 gusting 8 27.2
2020-Jun-03 22:10 069 3 gusting 6 27.2
2020-Jun-03 22:05 092 1 gusting 6 27.2
2020-Jun-03 22:04 076 2 gusting 6 27.2
2020-Jun-03 21:55 075 1 gusting 6 27.2
2020-Jun-03 21:50 057 2 gusting 6 27.2
2020-Jun-03 21:47 063 1 gusting 6 27.2
2020-Jun-03 21:40 053 3 gusting 6 27.2
2020-Jun-03 21:35 061 1 gusting 6 27.2
2020-Jun-03 21:31 066 2 gusting 6 27.2
2020-Jun-03 21:25 066 2 gusting 6 27.2
2020-Jun-03 21:20 080 1 gusting 5 27.2
2020-Jun-03 21:16 073 1 gusting 6 27.2
2020-Jun-03 21:11 077 1 gusting 6 27.2
2020-Jun-03 21:05 063 2 gusting 6 27.2
2020-Jun-03 21:01 062 3 gusting 6 27.2
2020-Jun-03 20:55 061 2 gusting 6 27.8
2020-Jun-03 20:50 080 2 gusting 6 27.8
2020-Jun-03 20:47 074 3 gusting 6 27.8
2020-Jun-03 20:40 071 2 gusting 6 27.8
2020-Jun-03 20:36 096 1 gusting 5 27.8
2020-Jun-03 20:32 095 1 gusting 5 27.8
2020-Jun-03 20:25 126 1 gusting 5 27.2
2020-Jun-03 20:20 117 1 gusting 5 27.8
2020-Jun-03 20:16 071 0 gusting 7 27.2
2020-Jun-03 20:10 086 1 gusting 7 27.2
2020-Jun-03 20:06 046 3 gusting 6 27.2
2020-Jun-03 20:02 066 3 gusting 6 27.2
2020-Jun-03 19:55 036 4 gusting 6 27.2
2020-Jun-03 19:50 026 2 gusting 5 27.2
2020-Jun-03 19:47 024 2 gusting 5 27.2
2020-Jun-03 19:40 031 1 gusting 5 26.7
2020-Jun-03 19:35 038 2 gusting 7 26.7
2020-Jun-03 19:32 040 3 gusting 7 26.7
2020-Jun-03 19:25 019 4 gusting 7 26.7
2020-Jun-03 19:20 031 3 gusting 6 26.7
2020-Jun-03 19:16 355 3 gusting 6 26.7
2020-Jun-03 19:10 019 2 gusting 5 26.1
2020-Jun-03 19:05 349 2 gusting 5 26.1
2020-Jun-03 19:02 355 2 gusting 4 26.1
2020-Jun-03 18:56 317 2 gusting 4 26.1
2020-Jun-03 18:50 331 2 gusting 4 25.6
2020-Jun-03 18:46 328 2 gusting 5 25.6
2020-Jun-03 18:40 329 2 gusting 5 25.6
2020-Jun-03 18:35 322 2 gusting 4 25.6
2020-Jun-03 18:32 331 1 gusting 5 25.0
2020-Jun-03 18:25 329 1 gusting 5 25.0
2020-Jun-03 18:20 332 1 gusting 3 25.0
2020-Jun-03 18:16 352 1 gusting 3 25.0
2020-Jun-03 18:11 355 1 gusting 3 25.0
2020-Jun-03 18:06 355 0 gusting 2 24.4
2020-Jun-03 18:02 355 1 gusting 2 24.4
2020-Jun-03 17:55 360 24.4
2020-Jun-03 17:50 355 1 gusting 3 24.4
2020-Jun-03 17:48 005 0 gusting 4 24.4
2020-Jun-03 17:41 360 2 gusting 4 24.4
2020-Jun-03 17:36 360 1 gusting 3 24.4
2020-Jun-03 17:31 360 0 gusting 3 23.9
2020-Jun-03 17:26 013 1 gusting 4 23.9
2020-Jun-03 17:20 350 1 gusting 4 23.3
2020-Jun-03 17:16 355 1 gusting 3 23.3
2020-Jun-03 17:11 019 1 gusting 3 23.3
2020-Jun-03 17:05 029 1 gusting 3 23.3
2020-Jun-03 17:01 029 1 gusting 2 23.3
2020-Jun-03 16:55 030 0 gusting 2 23.3
2020-Jun-03 16:51 030 0 gusting 6 23.3
2020-Jun-03 16:47 030 2 gusting 6 23.3
2020-Jun-03 16:41 071 1 gusting 10 23.9
2020-Jun-03 16:35 076 3 gusting 13 23.9
2020-Jun-03 16:32 138 6 gusting 16 23.9
2020-Jun-03 16:25 126 6 gusting 16 24.4
2020-Jun-03 16:20 146 6 gusting 14 24.4
2020-Jun-03 16:17 150 4 gusting 8 25.0
2020-Jun-03 16:11 161 3 gusting 7 25.0
2020-Jun-03 16:05 131 0 gusting 2 25.0
2020-Jun-03 16:02 25.0
2020-Jun-03 15:55 25.0
2020-Jun-03 15:51 25.0
2020-Jun-03 15:46 25.0
2020-Jun-03 15:40 25.0
2020-Jun-03 15:35 25.0
2020-Jun-03 15:31 25.0
2020-Jun-03 15:25 130 0 gusting 7 25.0
2020-Jun-03 15:21 107 1 gusting 8 25.0
2020-Jun-03 15:17 105 3 gusting 10 25.0
2020-Jun-03 15:11 105 5 gusting 11 25.6
2020-Jun-03 15:05 119 7 gusting 13 25.6
2020-Jun-03 15:01 132 7 gusting 13 25.6
2020-Jun-03 14:55 135 8 gusting 16 26.1
2020-Jun-03 14:50 121 8 gusting 16 26.1
2020-Jun-03 14:46 110 9 gusting 16 26.7
2020-Jun-03 14:41 137 8 gusting 16 26.7
2020-Jun-03 14:35 102 8 gusting 16 26.7
2020-Jun-03 14:32 090 6 gusting 13 27.2
2020-Jun-03 14:25 078 6 gusting 10 27.2
2020-Jun-03 14:20 090 5 gusting 9 26.7
2020-Jun-03 14:16 093 4 gusting 9 26.7
2020-Jun-03 14:10 077 4 gusting 8 26.7
2020-Jun-03 14:05 080 2 gusting 6 26.7
2020-Jun-03 14:02 091 3 gusting 7 26.7
2020-Jun-03 13:56 078 3 gusting 7 26.7
2020-Jun-03 13:50 090 3 gusting 6 26.7
2020-Jun-03 13:47 080 3 gusting 6 26.7
2020-Jun-03 13:40 082 2 gusting 6 26.1
2020-Jun-03 13:35 083 2 gusting 6 26.1
2020-Jun-03 13:31 078 2 gusting 6 26.1
2020-Jun-03 13:25 078 2 gusting 6 26.1
2020-Jun-03 13:20 070 2 gusting 6 26.1
2020-Jun-03 13:16 074 3 gusting 7 25.6
2020-Jun-03 13:10 057 3 gusting 7 25.6
2020-Jun-03 13:05 076 3 gusting 9 25.6
2020-Jun-03 13:02 097 4 gusting 9 25.0
2020-Jun-03 12:56 089 4 gusting 9 25.0
2020-Jun-03 12:50 083 2 gusting 6 24.4
2020-Jun-03 12:46 103 1 gusting 11 24.4
2020-Jun-03 12:40 103 6 gusting 19 24.4
2020-Jun-03 12:35 125 13 gusting 20 25.6
2020-Jun-03 12:32 111 12 gusting 20 26.7
2020-Jun-03 12:25 133 11 gusting 16 27.2
2020-Jun-03 12:20 090 8 gusting 13 27.2
2020-Jun-03 12:16 125 7 gusting 12 27.8
2020-Jun-03 12:10 117 5 gusting 9 27.8
2020-Jun-03 12:05 096 5 gusting 9 27.8
2020-Jun-03 12:03 111 5 gusting 9 27.8
2020-Jun-03 11:56 080 5 gusting 9 27.8
2020-Jun-03 11:50 106 5 gusting 9 27.8
2020-Jun-03 11:47 097 5 gusting 9 27.8
2020-Jun-03 11:40 098 4 gusting 9 27.8
2020-Jun-03 11:35 113 6 gusting 9 27.8
2020-Jun-03 11:31 086 6 gusting 9 27.8
2020-Jun-03 11:25 098 4 gusting 9 27.2
2020-Jun-03 11:21 095 6 gusting 10 27.2
2020-Jun-03 11:17 094 6 gusting 10 27.2
2020-Jun-03 11:11 080 6 gusting 10 27.2
2020-Jun-03 11:05 093 4 gusting 8 27.8
2020-Jun-03 11:01 107 4 gusting 10 27.8
2020-Jun-03 10:55 096 6 gusting 10 27.2
2020-Jun-03 10:51 090 5 gusting 10 27.2
2020-Jun-03 10:46 091 6 gusting 10 27.2
2020-Jun-03 10:40 107 5 gusting 9 27.2
2020-Jun-03 10:36 097 4 gusting 9 27.2
2020-Jun-03 10:32 105 6 gusting 9 27.2
2020-Jun-03 10:25 109 5 gusting 10 27.2
2020-Jun-03 10:20 100 4 gusting 11 27.2
2020-Jun-03 10:17 107 6 gusting 11 27.2
2020-Jun-03 10:10 105 6 gusting 11 27.2
2020-Jun-03 10:05 102 6 gusting 11 27.2
2020-Jun-03 10:01 098 6 gusting 9 27.2
2020-Jun-03 09:56 123 5 gusting 9 27.2
2020-Jun-03 09:50 099 6 gusting 9 27.2
2020-Jun-03 09:48 087 6 gusting 10 27.2
2020-Jun-03 09:40 092 6 gusting 10 27.2
2020-Jun-03 09:35 099 5 gusting 10 27.2
2020-Jun-03 09:31 090 5 gusting 9 27.2
2020-Jun-03 09:26 130 5 gusting 9 27.2
2020-Jun-03 09:21 123 6 gusting 11 27.2
2020-Jun-03 09:16 089 6 gusting 11 27.2
2020-Jun-03 09:10 110 5 gusting 9 27.2
2020-Jun-03 09:05 111 5 gusting 9 27.2
2020-Jun-03 09:01 087 5 gusting 9 27.2
2020-Jun-03 08:55 093 5 gusting 9 27.2
2020-Jun-03 08:50 105 6 gusting 9 27.2
2020-Jun-03 08:46 096 4 gusting 9 27.2
2020-Jun-03 08:40 092 6 gusting 10 27.2
2020-Jun-03 08:35 098 6 gusting 12 27.2
2020-Jun-03 08:33 110 6 gusting 12 27.2
2020-Jun-03 08:25 109 6 gusting 10 27.2
2020-Jun-03 08:20 105 6 gusting 9 26.7
2020-Jun-03 08:16 092 5 gusting 9 26.7
2020-Jun-03 08:11 167 4 gusting 9 27.2
2020-Jun-03 08:06 117 5 gusting 8 27.2
2020-Jun-03 08:01 094 4 gusting 9 27.2
2020-Jun-03 07:56 109 5 gusting 9 27.2
2020-Jun-03 07:50 103 3 gusting 9 27.2
2020-Jun-03 07:46 098 3 gusting 7 27.8
2020-Jun-03 07:40 107 5 gusting 8 27.8
2020-Jun-03 07:35 111 5 gusting 11 27.8
2020-Jun-03 07:32 096 4 gusting 11 27.8
2020-Jun-03 07:25 121 5 gusting 8 27.8
2020-Jun-03 07:20 103 4 gusting 7 27.8
2020-Jun-03 07:16 102 4 gusting 8 27.8
2020-Jun-03 07:10 113 5 gusting 11 27.8
2020-Jun-03 07:05 092 6 gusting 11 27.8
2020-Jun-03 07:02 094 4 gusting 12 27.8
2020-Jun-03 06:55 085 6 gusting 12 27.8
2020-Jun-03 06:50 118 4 gusting 8 27.8
2020-Jun-03 06:46 105 3 gusting 8 27.8
2020-Jun-03 06:41 109 4 gusting 8 27.8
2020-Jun-03 06:35 102 4 gusting 7 27.8
2020-Jun-03 06:32 099 2 gusting 7 27.8
2020-Jun-03 06:25 119 4 gusting 9 27.8
2020-Jun-03 06:20 115 5 gusting 9 27.2
2020-Jun-03 06:16 085 5 gusting 8 27.8
2020-Jun-03 06:10 117 4 gusting 8 27.8
2020-Jun-03 06:05 110 5 gusting 8 27.8
2020-Jun-03 06:02 114 4 gusting 8 27.8
2020-Jun-03 05:55 119 4 gusting 9 27.8
2020-Jun-03 05:50 076 5 gusting 9 27.8
2020-Jun-03 05:47 076 5 gusting 9 27.8
2020-Jun-03 05:41 101 4 gusting 9 27.8
2020-Jun-03 05:35 107 5 gusting 10 27.8
2020-Jun-03 05:32 107 4 gusting 10 27.8
2020-Jun-03 05:25 134 5 gusting 8 27.8
2020-Jun-03 05:21 109 5 gusting 9 27.8
2020-Jun-03 05:16 090 5 gusting 9 27.8
2020-Jun-03 05:11 090 5 gusting 8 27.8
2020-Jun-03 05:02 103 5 gusting 9 27.8
2020-Jun-03 04:55 094 5 gusting 10 27.8
2020-Jun-03 04:51 109 6 gusting 10 27.8
2020-Jun-03 04:46 086 5 gusting 9 27.8
2020-Jun-03 04:40 104 5 gusting 9 27.8
2020-Jun-03 04:35 113 5 gusting 12 27.8
2020-Jun-03 04:32 112 5 gusting 12 27.8
2020-Jun-03 04:25 096 6 gusting 10 27.8
2020-Jun-03 04:20 103 4 gusting 10 27.8
2020-Jun-03 04:16 107 5 gusting 10 27.8
2020-Jun-03 04:10 103 5 gusting 10 27.8
2020-Jun-03 04:05 086 4 gusting 12 27.8
2020-Jun-03 04:01 098 6 gusting 12 27.8
2020-Jun-03 03:56 108 6 gusting 10 27.8
2020-Jun-03 03:51 071 5 gusting 9 27.8
2020-Jun-03 03:46 080 5 gusting 11 27.8
2020-Jun-03 03:40 089 5 gusting 11 27.8
2020-Jun-03 03:35 083 5 gusting 9 27.8
2020-Jun-03 03:31 087 4 gusting 12 27.8
2020-Jun-03 03:25 096 6 gusting 12 27.8
2020-Jun-03 03:20 101 6 gusting 9 27.8
2020-Jun-03 03:16 091 6 gusting 11 27.8
2020-Jun-03 03:10 105 6 gusting 11 27.8
2020-Jun-03 03:05 112 5 gusting 9 27.8
2020-Jun-03 03:01 084 6 gusting 9 27.8